GOES 9 [-]

Last updated on Aug. 14, 2020, 5:30 a.m. UTC

1 23581U 95025A   20226.56212833  .00000029  00000-0  00000+0 0  9992
2 23581  12.0784  29.1198 0006130  74.5698 295.7751  0.98798744 91677
UTC
Height (km)
Latitude
Longitude
Inclination
Orbital Period
UTC large
Height (km)
Speed (km/s)
/
Latitude / Longitude
Inclination (degrees)
Orbital Period (minutes)
Azimuth
Elevation
Range (km)
Doppler Factor
iOS Compass Heading
iOS Angle

Next 30 passes for location: Hong Kong

Rise time Rise Azimuth (degrees) Set time Set Azimuth (degrees) Duration Max altitude (degrees)

No matching passes for this satellites